Wind_Speed
4 4 5 5 6 7 6 6 6 6 6 5 5 5 4 4 4 5 5 5 6 6 6 6 7 7 7 7 7 7 8 8 7 7 8 8 8 8 9 9 9 9 9
5 5 5 6 6 6 6 5 5 5 5 5 5 5 5 6 6 6 6 6 6 7 7 7 8 7 7 7 8 8 8 8 8 8 9 9 10 9 9 9 9 9 9
5 6 6 6 6 6 6 6 6 6 6 7 7 7 7 7 7 7 7 7 7 7 8 8 8 8 8 8 9 9 9 9 9 10 10 10 10 10 10 11 10 10 9
7 7 7 7 6 5 6 7 7 7 7 8 8 8 8 8 8 8 8 8 8 8 9 10 10 10 9 10 10 10 10 11 11 11 11 11 10 10 11 12 11 11 11
8 7 8 7 6 6 7 7 7 8 8 8 9 9 9 9 9 10 10 10 10 10 10 11 12 11 11 11 11 11 12 12 13 12 12 12 11 11 11 12 13 12 13
8 9 8 8 7 7 7 7 7 8 8 8 9 10 10 10 11 11 12 12 12 12 12 13 13 13 13 13 13 13 14 14 14 14 13 13 12 12 12 13 13 13 13
9 9 9 8 8 8 8 7 8 9 10 10 10 11 11 11 12 12 13 13 13 13 13 14 13 14 14 14 14 14 14 15 14 14 14 14 14 13 14 14 14 14 14
10 10 9 9 9 9 9 9 9 10 11 11 12 12 12 13 13 13 13 13 13 13 14 15 15 14 15 15 15 15 16 16 15 16 16 16 15 15 15 15 15 15 14
12 11 10 11 11 11 11 12 12 11 11 12 12 13 14 14 14 13 13 13 14 15 15 16 15 15 16 16 16 16 16 16 17 17 17 17 17 17 17 16 17 17 17
13 13 12 12 12 12 13 13 13 13 13 13 13 13 14 14 14 14 14 14 15 15 15 16 16 17 18 18 18 17 17 17 17 18 18 18 18 18 18 18 18 18 18
14 13 13 13 13 13 13 13 14 14 14 14 14 14 14 14 13 14 14 15 15 15 16 17 17 18 19 19 19 19 19 19 19 19 19 19 19 19 20 19 20 20 20
15 15 15 15 15 15 14 14 15 15 15 15 15 15 15 15 14 15 15 15 16 16 17 18 18 18 18 19 19 19 19 19 20 21 21 21 20 20 20 21 20 20 20
16 16 16 16 16 16 16 15 15 16 16 16 17 16 16 16 16 16 16 16 17 17 18 18 18 18 17 18 19 19 20 20 21 21 21 21 21 21 21 22 22 21 22
17 18 17 16 16 16 16 16 16 16 16 17 17 17 17 17 17 17 18 17 17 18 18 18 19 19 19 19 19 20 20 20 20 21 21 22 21 21 21 21 22 21 22
19 19 18 18 17 17 17 17 17 17 17 17 18 19 18 19 18 18 18 19 19 19 19 19 20 20 21 20 20 20 20 20 19 20 20 21 21 21 22 22 22 22 22
20 20 20 18 18 19 19 18 19 19 19 19 19 18 19 19 19 19 20 20 20 19 19 20 20 21 21 22 21 21 21 21 20 20 19 19 20 21 21 21 22 22 22
19 20 20 19 19 19 19 19 19 20 20 20 20 20 19 20 20 21 21 21 20 20 20 20 21 21 22 21 21 21 21 22 21 20 20 20 21 21 22 22 22 22 22
20 20 21 21 21 21 20 21 21 21 21 22 21 21 21 21 21 21 21 21 22 22 22 21 21 21 21 21 21 21 21 21 20 20 20 21 21 21 21 21 22 23 23
21 22 22 22 22 22 22 22 22 22 22 23 22 22 22 22 22 22 22 22 23 23 23 22 21 22 22 22 21 21 21 21 21 21 21 21 21 21 21 21 22 22 22
23 22 22 22 22 22 22 23 23 23 23 23 23 23 23 23 23 23 23 23 23 24 24 23 23 23 24 24 23 22 22 22 21 21 21 21 21 21 21 21 22 23 23
24 23 23 23 23 23 23 23 24 24 23 23 23 23 23 23 23 23 23 24 24 24 24 24 24 24 23 23 23 22 22 22 22 22 22 21 21 21 22 22 22 23 23
24 24 24 24 24 24 25 25 24 24 24 24 24 24 23 24 23 24 24 24 25 24 24 24 24 23 22 22 23 23 22 23 23 23 22 23 22 22 23 23 23 23 24
25 25 25 25 26 27 26 26 25 25 25 25 24 24 24 24 24 24 24 24 24 23 23 22 22 22 22 22 23 23 22 22 23 23 23 23 23 23 23 23 23 23 23
26 26 26 26 26 26 27 26 26 26 26 26 25 25 24 24 24 24 24 24 24 23 23 22 22 22 22 22 22 23 22 22 22 23 23 23 23 23 24 23 24 23 24
27 27 26 26 26 26 27 27 27 26 26 25 25 25 24 24 24 24 23 23 23 23 23 23 23 23 23 23 23 23 22 22 22 22 22 22 23 23 23 24 23 23 23
26 26 25 25 25 25 25 26 26 26 25 25 25 24 24 23 23 23 23 23 23 23 24 24 24 23 23 23 23 23 22 21 21 21 21 22 22 23 23 23 23 23 24
Wind_Direction
307 307 306 293 292 295 292 284 273 265 259 256 256 256 260 269 268 263 263 261 260 257 257 259 264 268 271 272 270 271 271 271 274 271 270 269 270 269 271 268 264 262 261
286 300 304 301 300 298 293 288 277 265 258 255 256 262 261 263 266 267 265 264 264 262 264 264 262 263 268 272 275 275 280 279 274 275 271 268 267 266 268 269 266 265 262
286 287 295 305 311 305 297 290 283 274 262 256 256 258 259 258 260 262 260 261 263 263 262 260 260 261 266 268 271 274 282 284 281 275 270 266 266 265 265 267 267 264 265
278 281 287 300 301 295 292 285 277 274 266 260 259 259 258 257 257 258 258 261 263 261 261 260 261 264 265 268 273 280 281 281 281 277 272 270 273 270 268 269 269 266 267
267 272 276 289 285 288 289 284 277 269 265 263 262 262 264 264 262 262 262 263 264 264 265 263 263 266 269 270 275 279 280 281 280 279 281 277 278 274 272 271 270 269 269
263 267 273 285 281 287 288 284 277 270 267 265 266 264 265 269 270 267 266 264 264 263 263 265 265 267 270 272 276 277 278 281 281 279 279 277 275 274 271 271 270 269 270
265 271 271 275 279 286 282 279 278 271 271 270 270 267 268 273 273 272 267 266 262 262 264 266 268 268 268 271 274 274 276 276 276 277 276 274 272 273 272 272 271 272 272
271 270 272 272 276 279 276 276 277 275 273 270 270 268 269 272 272 271 266 263 260 261 264 266 269 270 272 273 275 275 274 275 275 275 273 272 270 269 271 268 269 272 275
268 270 269 272 272 274 275 274 273 273 274 274 273 270 271 272 270 268 268 265 262 264 267 268 269 270 271 273 274 274 275 275 275 277 275 272 270 269 269 267 269 270 271
266 268 270 271 271 272 274 273 274 273 273 273 274 273 272 270 270 267 266 265 265 268 271 270 273 273 271 270 272 273 275 275 275 274 275 273 271 269 272 270 270 272 270
265 267 270 271 272 274 273 274 273 273 272 274 274 273 271 270 272 270 267 267 267 271 273 274 277 276 273 271 272 272 273 274 273 273 274 274 272 269 269 269 267 268 269
267 267 268 271 272 273 271 272 271 272 272 272 271 269 268 268 270 269 266 267 269 271 273 275 277 278 277 276 274 276 277 276 273 273 274 273 271 270 269 269 269 268 267
266 266 267 268 268 269 271 272 270 271 272 272 271 268 267 266 268 269 267 266 268 271 273 274 276 278 280 280 278 279 281 280 274 274 274 273 272 271 270 271 270 269 267
264 264 265 264 266 267 270 272 271 271 273 274 273 270 269 267 268 268 268 268 268 270 273 275 277 279 280 280 281 283 284 283 279 277 277 273 272 271 269 269 268 268 268
266 265 263 263 265 266 267 270 272 271 275 274 271 274 272 271 270 269 269 269 271 272 274 275 278 279 281 280 281 283 284 283 283 280 278 274 272 270 269 268 267 267 266
267 264 262 265 266 266 267 269 271 273 275 275 272 273 273 275 272 270 270 270 273 274 274 277 279 280 280 280 280 281 282 282 284 282 279 276 275 273 271 272 270 269 268
270 267 266 268 269 270 271 271 272 273 275 276 275 275 276 276 275 274 271 271 272 273 275 277 278 278 278 278 279 279 281 283 282 282 279 278 277 276 274 274 273 271 270
268 267 267 269 272 273 273 272 272 273 275 277 277 275 274 274 274 275 272 272 272 273 275 277 277 278 277 278 279 281 281 282 281 281 280 278 277 277 277 277 275 272 270
268 269 269 269 270 272 274 273 272 273 274 276 276 275 274 274 275 275 273 274 274 274 274 275 276 276 276 276 280 280 280 280 279 279 280 278 278 277 277 278 275 274 272
269 269 268 268 269 270 272 272 272 273 274 274 274 274 273 273 274 274 274 275 275 274 274 273 274 275 276 276 278 279 279 279 277 279 279 278 277 278 278 280 277 275 275
268 268 268 267 267 267 269 272 273 273 272 272 273 274 273 273 273 273 275 275 275 275 274 274 274 275 275 275 277 278 279 278 277 278 277 276 278 280 280 281 279 277 275
267 269 269 268 267 267 269 270 272 274 271 270 271 273 273 273 273 273 275 275 277 276 276 276 276 275 275 276 278 279 278 277 277 277 277 277 277 280 282 280 280 278 275
268 269 268 268 268 267 268 269 272 273 271 269 269 271 272 272 273 273 275 276 278 277 276 277 276 276 276 277 277 279 279 278 278 278 278 278 278 279 282 282 282 280 278
268 268 268 268 267 266 267 269 269 270 269 268 268 270 272 272 272 273 274 276 276 277 276 276 275 275 275 275 277 278 278 277 277 279 279 279 279 280 283 284 283 281 280
265 266 266 268 267 265 265 266 266 268 270 269 268 269 272 272 272 273 274 275 276 276 276 276 275 275 274 274 276 277 277 278 278 279 280 280 280 281 282 283 282 281 282
269 267 268 268 267 265 264 263 264 267 269 268 267 268 270 272 272 272 273 274 275 276 275 276 276 275 275 274 274 275 276 277 279 280 281 281 282 282 282 282 282 282 282
Height
5861 5860 5860 5860 5860 5859 5859 5859 5859 5859 5860 5860 5861 5862 5862 5863 5863 5864 5864 5864 5865 5865 5866 5867 5867 5867 5867 5867 5867 5867 5867 5867 5866 5866 5866 5866 5867 5867 5867 5867 5867 5867 5867
5860 5859 5859 5859 5859 5858 5858 5858 5858 5858 5858 5859 5860 5860 5861 5862 5862 5863 5863 5863 5863 5864 5865 5865 5865 5865 5865 5865 5865 5865 5865 5865 5864 5865 5865 5865 5865 5865 5865 5865 5865 5865 5865
5858 5858 5858 5858 5857 5857 5857 5857 5857 5857 5857 5858 5858 5859 5859 5860 5861 5861 5861 5861 5862 5862 5863 5863 5863 5864 5864 5863 5863 5863 5863 5863 5862 5862 5862 5862 5862 5862 5862 5862 5862 5863 5863
5856 5856 5856 5856 5856 5855 5855 5855 5855 5855 5856 5856 5857 5857 5857 5858 5858 5859 5859 5860 5860 5860 5860 5861 5861 5861 5861 5861 5861 5861 5861 5860 5860 5860 5860 5860 5860 5860 5860 5860 5860 5860 5861
5854 5854 5854 5854 5854 5854 5854 5854 5853 5853 5854 5854 5854 5855 5855 5856 5856 5856 5857 5857 5858 5858 5858 5858 5858 5858 5858 5859 5859 5859 5859 5858 5858 5857 5857 5857 5857 5857 5857 5857 5857 5857 5858
5852 5852 5852 5852 5852 5852 5852 5852 5852 5851 5852 5852 5852 5853 5853 5853 5853 5853 5854 5854 5855 5855 5855 5855 5855 5856 5856 5856 5856 5856 5855 5855 5855 5854 5854 5854 5854 5854 5854 5854 5854 5854 5855
5850 5850 5850 5850 5850 5850 5850 5850 5849 5849 5849 5850 5850 5851 5851 5850 5851 5850 5851 5851 5851 5851 5852 5852 5852 5852 5852 5852 5852 5852 5852 5852 5851 5851 5851 5851 5851 5850 5850 5851 5851 5851 5851
5848 5848 5848 5848 5848 5848 5848 5848 5847 5847 5847 5847 5847 5848 5848 5848 5847 5847 5847 5847 5848 5848 5848 5848 5848 5849 5849 5849 5849 5848 5848 5848 5848 5847 5847 5847 5847 5847 5847 5847 5847 5847 5847
5845 5845 5845 5845 5845 5845 5845 5845 5844 5844 5844 5844 5844 5845 5845 5845 5844 5844 5844 5844 5844 5845 5845 5845 5844 5845 5845 5845 5845 5844 5844 5844 5844 5843 5843 5843 5843 5843 5843 5843 5843 5843 5843
5842 5842 5842 5842 5842 5842 5842 5841 5841 5841 5841 5841 5841 5841 5841 5841 5841 5841 5841 5841 5840 5840 5840 5841 5840 5840 5840 5841 5840 5840 5839 5839 5839 5839 5838 5838 5838 5838 5839 5839 5839 5839 5838
5838 5839 5839 5838 5839 5838 5838 5838 5838 5837 5837 5837 5837 5837 5837 5837 5837 5837 5837 5837 5837 5836 5836 5836 5836 5836 5836 5836 5835 5835 5835 5834 5834 5834 5833 5833 5833 5833 5833 5833 5833 5833 5833
5835 5835 5835 5835 5835 5835 5835 5834 5834 5833 5833 5833 5833 5833 5833 5833 5833 5833 5833 5833 5833 5832 5832 5832 5831 5831 5831 5830 5830 5830 5829 5829 5829 5828 5828 5828 5828 5828 5827 5827 5827 5828 5828
5830 5831 5831 5831 5831 5831 5831 5830 5830 5829 5829 5829 5828 5828 5828 5828 5828 5828 5829 5829 5828 5828 5828 5827 5827 5826 5826 5825 5825 5825 5824 5823 5823 5823 5822 5822 5822 5822 5822 5821 5821 5821 5822
5826 5827 5827 5827 5826 5826 5826 5826 5826 5825 5825 5824 5823 5823 5823 5823 5823 5823 5824 5824 5824 5824 5823 5823 5822 5822 5821 5821 5820 5819 5819 5818 5817 5816 5816 5816 5815 5815 5815 5815 5815 5815 5815
5822 5822 5822 5822 5822 5822 5822 5822 5822 5821 5820 5819 5819 5818 5818 5818 5818 5818 5818 5819 5819 5818 5818 5818 5817 5816 5816 5815 5815 5814 5813 5812 5811 5810 5810 5809 5809 5809 5809 5809 5809 5809 5809
5817 5817 5817 5817 5817 5817 5817 5817 5817 5816 5816 5815 5814 5813 5813 5813 5813 5813 5813 5813 5813 5813 5813 5813 5811 5810 5810 5809 5809 5808 5807 5806 5805 5804 5803 5803 5803 5803 5802 5802 5802 5803 5803
5811 5812 5812 5812 5812 5812 5812 5812 5812 5811 5811 5810 5809 5809 5808 5808 5808 5807 5807 5807 5807 5807 5807 5807 5806 5805 5804 5803 5803 5802 5801 5800 5799 5798 5798 5797 5797 5796 5796 5796 5796 5796 5796
5806 5806 5806 5806 5806 5807 5806 5806 5806 5806 5805 5804 5804 5803 5803 5802 5802 5801 5801 5801 5801 5801 5801 5801 5800 5799 5798 5797 5797 5796 5795 5794 5794 5793 5792 5792 5791 5790 5790 5790 5789 5789 5790
5800 5800 5800 5800 5801 5801 5800 5800 5800 5800 5799 5799 5798 5797 5797 5796 5796 5795 5795 5795 5795 5794 5794 5794 5794 5793 5792 5791 5791 5790 5789 5788 5788 5787 5786 5785 5785 5784 5784 5783 5783 5783 5783
5794 5794 5793 5794 5794 5794 5794 5794 5794 5793 5793 5792 5792 5791 5791 5790 5790 5789 5789 5789 5788 5788 5787 5787 5787 5787 5786 5785 5784 5784 5783 5782 5782 5781 5780 5779 5779 5778 5777 5777 5777 5777 5776
5787 5787 5787 5787 5787 5788 5788 5787 5787 5786 5786 5786 5785 5785 5784 5784 5783 5783 5783 5782 5781 5781 5781 5780 5780 5780 5779 5778 5778 5777 5777 5776 5775 5775 5774 5773 5773 5772 5771 5771 5770 5770 5770
5779 5779 5779 5780 5780 5780 5781 5780 5780 5779 5779 5779 5778 5778 5777 5777 5776 5776 5776 5775 5774 5774 5774 5773 5773 5773 5772 5772 5771 5771 5770 5769 5769 5769 5768 5767 5766 5766 5765 5764 5764 5763 5763
5772 5772 5772 5772 5772 5773 5773 5773 5772 5772 5772 5772 5771 5771 5770 5770 5770 5769 5769 5768 5768 5767 5767 5767 5766 5766 5766 5765 5765 5764 5763 5763 5762 5762 5761 5761 5760 5759 5758 5758 5757 5756 5756
5764 5764 5764 5764 5764 5765 5765 5765 5765 5765 5764 5764 5764 5764 5763 5763 5763 5762 5762 5761 5761 5760 5760 5759 5759 5759 5759 5758 5758 5758 5757 5756 5756 5755 5755 5754 5754 5753 5752 5751 5750 5749 5749
5756 5756 5756 5756 5756 5756 5757 5757 5757 5756 5756 5756 5756 5756 5756 5756 5756 5755 5755 5755 5754 5754 5753 5752 5752 5752 5752 5752 5751 5751 5751 5750 5750 5749 5748 5748 5747 5747 5746 5745 5744 5743 5742
5748 5748 5748 5748 5748 5748 5748 5748 5748 5749 5749 5748 5748 5748 5748 5748 5748 5747 5747 5747 5747 5747 5746 5745 5745 5745 5745 5745 5745 5745 5744 5744 5743 5743 5742 5742 5741 5740 5740 5738 5737 5736 5735